Home > Weather > Turaif > Past weeks

Flag for Saudi Arabia Weather for the Past 2 Weeks in Turaif, Saudi Arabia

Now
90 °F

Broken clouds.


Feels Like: 86 °F
Forecast: 65 / 86 °F
Wind: 16 mph from West

Location: Turaif

Current Time: May 1, 2016 at 6:42:55 PM

Latest Report: May 1, 2016 at 6:00 PM


Visibility: N/A

Pressure: 29.86 "Hg (27.22 "Hg at 827m altitude)

Humidity: 15%

Dew Point: 36 °F

Location of TuraifLocation

Historic Weather in Turaif — Graph

°F

Turaif Temperature Yesterday

Maximum temperature yesterday: 86 °F (at 2:00 PM)
Minimum temperature yesterday: 61 °F (at 5:00 AM)
Average temperature yesterday: 74 °F

High & Low Weather Summary for the Past Weeks

 TemperatureHumidityPressure
High95 °F (Apr 25, 2:00 PM)59% (Apr 17, 6:00 AM)30.15 "Hg (Apr 17, 6:00 AM)
Low55 °F (Apr 29, 5:00 AM)9% (Apr 24, 4:00 PM)29.77 "Hg (Apr 24, 6:00 PM)
Average75 °F26%29.97 "Hg
* Reported Apr 16 5:00 PM — May 1 5:00 PM, Turaif, Weather by CustomWeather, © 2016

Note: Actual official high and low records may vary slightly from our data, if they occured in-between our weather recording intervals... More about our weather records

Advertising

Turaif Weather History for the Previous 24 Hours

Scroll right to see more
 ConditionsComfort  
Time TempWeatherWind HumidityBarometerVisibility
5:00 PM
Sun, May 1
91 °FBroken clouds.12 mph14%29.86 "HgN/A
4:00 PM93 °FBroken clouds.14 mph13%29.83 "HgN/A
3:00 PM93 °FBroken clouds.18 mph13%29.86 "HgN/A
2:00 PM91 °FBroken clouds.18 mph14%29.89 "HgN/A
1:00 PM90 °FScattered clouds.18 mph15%29.92 "HgN/A
12:00 PM90 °FSunny.14 mph15%29.92 "Hg10 mi
11:00 AM88 °FSunny.12 mph16%29.95 "Hg10 mi
10:00 AM82 °FSunny.9 mph17%29.95 "Hg10 mi
9:00 AM77 °FSunny.7 mph21%29.95 "Hg10 mi
8:00 AM72 °FSunny.5 mph27%29.95 "Hg10 mi
7:00 AM66 °FSunny.3 mph37%29.92 "Hg10 mi
6:00 AM63 °FClear.2 mph34%29.92 "Hg10 mi
5:00 AM64 °FClear.5 mph28%29.92 "Hg10 mi
3:00 AM70 °FClear.3 mph25%29.92 "Hg10 mi
2:00 AM68 °FClear.6 mph26%29.98 "Hg10 mi
1:00 AM70 °FClear.6 mph23%29.98 "Hg10 mi
12:00 AM72 °FClear.5 mph22%29.98 "Hg10 mi
11:00 PM
Sat, Apr 30
73 °FClear.5 mph20%29.98 "Hg10 mi
10:00 PM73 °FClear.No wind20%29.95 "Hg10 mi
9:00 PM77 °FClear.No wind17%29.95 "Hg10 mi
8:00 PM79 °FSunny.5 mph15%29.95 "Hg10 mi
7:00 PM81 °FSunny.5 mph13%29.92 "Hg10 mi
6:00 PM84 °FSunny.7 mph12%29.92 "Hg10 mi
Weather by CustomWeather, © 2016

See weather overviewHow to use our weather pages